AirNav   Everest Fuels
 
 1551 users online  

KRFG Rooke Field Airport
Refugio, Texas, USA

GOING TO REFUGIO?


FAA INFORMATION EFFECTIVE 15 JULY 2021

Location

FAA Identifier: RFG
Lat/Long: 28-17-45.8400N 097-19-34.9700W
28-17.764000N 097-19.582833W
28.2960667,-97.3263806
(estimated)
Elevation: 56 ft. / 17.1 m (surveyed)
Variation: 07E (1985)
From city: 3 miles W of REFUGIO, TX
Time zone: UTC -5 (UTC -6 during Standard Time)
Zip code: 78393

Airport Operations

Airport use: Open to the public
Activation date: 01/1945
Control tower: no
ARTCC: HOUSTON CENTER
FSS: SAN ANGELO FLIGHT SERVICE STATION
NOTAMs facility: SJT (NOTAM-D service available)
Attendance: 0800-1700
Pattern altitude: 856 ft. MSL
Wind indicator: yes
Segmented circle: yes
Lights: MIRL RWY 14L/32R SS-SR PRESET LOW, TO INCR INTST - CTAF.
Beacon: white-green (lighted land airport)
Operates sunset to sunrise.

Airport Communications

CTAF/UNICOM: 122.8
WX AWOS-3 at T69 (19 nm SW): 118.25 (361-364-1844)
WX ASOS at RKP (20 nm SE): 119.275 (361-729-2372)

Nearby radio navigation aids

VOR radial/distance  VOR name  Freq  Var
CRPr006/24.4CORPUS CHRISTI VORTAC115.5009E

 
NDB name  Hdg/Dist  Freq  Var  ID
MELLON RANCH273/6.437506EMNO -- -. ---

Airport Services

Fuel available: 100LL MOGAS
100LL:FUEL AVBL 24 HRS SELF SVC WITH CREDIT CARD.
Parking: hangars and tiedowns
Airframe service: NONE
Powerplant service: NONE
Bottled oxygen: NONE
Bulk oxygen: NONE

Runway Information

Runway 14L/32R

Dimensions: 4361 x 60 ft. / 1329 x 18 m
Surface: asphalt, in good condition
Weight bearing capacity: 
Single wheel: 9.0
Runway edge lights: medium intensity
Runway edge markings: RWY MARKINGS FADED.
Operational restrictions: RWY LINE OF SIGHT LTD BTN RWY ENDS.
RUNWAY 14L  RUNWAY 32R
Latitude: 28-18.062667N28-17.435333N
Longitude: 097-19.757500W097-19.359167W
Elevation: 52.0 ft.54.0 ft.
Traffic pattern: leftright
Runway heading: 144 magnetic, 151 true324 magnetic, 331 true
Displaced threshold: no166 ft.
Markings: nonprecision, in poor conditionnonprecision, in poor condition
Visual slope indicator: 2-light PAPI on left (3.00 degrees glide path)
Touchdown point: yes, no lightsyes, no lights
Obstructions: 11 ft. tree, 277 ft. from runway, 10 ft. left of centerline, 7:1 slope to clear15 ft. road, 375 ft. from runway, 145 ft. left of centerline, 11:1 slope to clear
APCH SLOPE 36:1 FM DSPLCD THR OVR 15 FT ROAD 541 FT DSTC; 22:1 OVR 40 FT TWR, 882 FT DSTC, 125 FT R.

Runway 14R/32L

Dimensions: 3000 x 100 ft. / 914 x 30 m
Surface: turf, in fair condition
RUNWAY 14R  RUNWAY 32L
Latitude: 28-18.004167N28-17.571667N
Longitude: 097-19.754167W097-19.481667W
Elevation: 56.0 ft.56.0 ft.
Traffic pattern: rightleft
Markings: none, in fair conditionnone, in fair condition
Touchdown point: yes, no lightsyes, no lights
Obstructions: 28 ft. trees, 966 ft. from runway, 168 ft. of centerline, 34:1 slope to clearnone

Airport Ownership and Management from official FAA records

Ownership: Publicly-owned
Owner: REFUGIO COUNTY
808 COMMERCE RM 104
REFUGIO, TX 78377
Phone 361-526-4434
Manager: GARY HENRY
PO BOX 637
WOODSBORO, TX 78393
Phone 361-438-1775
CELL 361-533-1346.

Airport Operational Statistics

Aircraft based on the field: 17
Single engine airplanes: 9
Multi engine airplanes: 4
Helicopters: 1
Gliders airplanes: 3
    
Aircraft operations: avg 75/week *
77% local general aviation
23% transient general aviation
* for 12-month period ending 03 May 2020

Additional Remarks

RWY 14R/32L SW OF RWY 14L/32R FOR GLIDER OPNS ONLY.
SIMUL PARL RWY OPNS NA.
GLIDER ACTVTY ON & INVOF ARPT.
WILDLIFE ON & INVOF ARPT.
FOR CD CTC HOUSTON ARTCC AT 281-230-5622.

Instrument Procedures

There are no published instrument procedures at KRFG.

Some nearby airports with instrument procedures:

TX2 - Chase Field Industrial Airport (18 nm W)
T69 - Alfred C 'Bubba' Thomas Airport (19 nm SW)
KRKP - Aransas County Airport (20 nm SE)
KTFP - McCampbell-Porter Airport (24 nm S)
KNGT - Goliad Naval Outlying Field (24 nm NW)
 
Loc | Ops | Rwys | IFR | FBO | Links
Com | Nav | Svcs | Stats | Notes
Area around KRFG (Rooke Field Airport)
 
Road maps at: MapQuest Bing Google
 
Aerial photo
WARNING: Photo may not be current or correct
Aerial photo of KRFG (Rooke Field Airport)
Do you have a better or more recent aerial photo of Rooke Field Airport that you would like to share? If so, please send us your photo.

 
Sectional chart

 
Airport distance calculator
Flying to Rooke Field Airport? Find the distance to fly.

From to KRFG

Sunrise and sunset
Times for 26-Jul-2021
 Local
(UTC-5)
 Zulu
(UTC)
Morning civil twilight06:2311:23
Sunrise06:4911:49
Sunset20:2301:23
Evening civil twilight20:4801:48

Current date and time
Zulu (UTC)  26-Jul-2021 17:47:16
Local (UTC-5)  26-Jul-2021 12:47:16
 
METAR
KRKP 
19nm SE 
261723Z AUTO 12007KT 10SM FEW026 32/26 A2998 RMK AO2 T03220256
KTFP 
24nm S 
261735Z AUTO 16007KT 10SM SCT028 SCT120 33/25 A2998 RMK AO2 T03260253
KBEA 
25nm W 
261735Z AUTO 15006KT 10SM SCT028 32/27 A2998 RMK AO2 T03220269
KRAS 
32nm SE 
261735Z AUTO 10006KT 10SM CLR 30/26 A3000 RMK AO2 T03010256
KCRP 
33nm S 
261651Z VRB05KT 10SM FEW027 SCT032 BKN250 32/24 A2998 RMK AO2 SLP151 T03220239
KRBO 
37nm SW 
261735Z AUTO 17005KT 10SM CLR 34/25 A2998 RMK AO2 T03380248
KNGP 
37nm S 
261656Z 13008KT 10SM FEW020 FEW031 SCT250 BKN300 32/25 A2998 RMK AO2 SLP152 T03220250
TAF
KCRP 
33nm S 
261130Z 2612/2712 17004KT 4SM BR HZ FEW015 BKN250 TEMPO 2612/2614 BKN015 FM261400 18007KT P6SM SCT250 FM261800 13012G18KT P6SM FEW120 FM262200 14010KT P6SM SKC
KNGP 
37nm S 
2615/2715 18007KT 9999 FEW015 SCT025 BKN250 BKN300 QNH2991INS TEMPO 2618/2621 14007KT FM262100 12010KT 9999 FEW035 SCT250 SCT300 QNH2988INS FM270200 15008KT 9999 FEW015 FEW250 QNH2991INS FM270900 19006KT 9999 SCT015 QNH2990INS TEMPO 2709/2711 BKN015 TEMPO 2711/2714 VRB03KT BKN015 FM271400 17007KT 9999 SCT018 SCT250 QNH2996INS T34/2620Z T26/2712Z FN20044
KVCT 
40nm NE 
261130Z 2612/2712 VRB04KT 4SM BR HZ SKC TEMPO 2612/2614 1SM BR BKN015 FM261400 22006KT P6SM FEW150 FM261900 16009KT P6SM SKC
NOTAMs
Click for the latest NOTAMs
NOTAMs are issued by the DoD/FAA and will open in a separate window not controlled by AirNav.

 

 
 

Would you like to see your business listed on this page?

 If your business provides an interesting product or service to pilots, flight crews, aircraft, or users of the Rooke Field Airport, you should consider listing it here.  To start the listing process, click on the button below
 
Add a business
 

Other Pages about Rooke Field Airport

Update a link
 
Copyright © AirNav, LLC. All rights reserved. Privacy Policy  Contact